Regional Weather Roundup
Issued by NWS Bismarck, ND

Home | Current Version | Previous Version | Text Only | Print | Product List | Glossary On
Versions: 1 2 3 4 5 6 7 8 9 10 11 12 13 14 15 16 17 18 19 20 21 22 23 24 25 26 27 28 29 30 31 32 33 34 35 36 37 38 39 40 41 42 43 44 45 46 47 48 49 50
000
ASUS43 KBIS 220120
RWRBIS

NWR BROADCAST TEXT
NATIONAL WEATHER SERVICE BISMARCK ND
800 PM CDT SUN SEP 21 2014

NOTE: "FAIR" INDICATES FEW OR NO CLOUDS BELOW 12,000 FEET WITH NO
SIGNIFICANT WEATHER AND/OR OBSTRUCTIONS TO VISIBILITY.


CITY           SKY/WX    TMP DP  RH WIND       PRES   REMARKS
WILLISTON      CLEAR     66  36  32 SE3       30.17F
MINOT          CLEAR     64  41  42 CALM      30.17F
MINOT AFB      CLEAR     62  44  51 SW5       30.17S
BISMARCK       CLEAR     61  44  53 SE3       30.21F
DICKINSON      CLEAR     66  35  31 E5        30.20F
GARRISON         N/A     58  44  60 W5        30.19F
HETTINGER ARPT CLEAR     61  37  41 SE5       30.23F
JAMESTOWN      CLEAR     57  49  74 CALM      30.20S
BEACH            N/A     59  37  44 SE8       30.20F
CARRINGTON     FAIR      55  46  71 W3        30.21S
CROSBY         FAIR      55  41  58 S6        30.16F
HARVEY         FAIR      59  45  58 CALM      30.19F
HAZEN          FAIR      52  41  66 SE6       30.21S
LINTON         FAIR      55  45  67 CALM      30.22S
MANDAN         FAIR      64  39  39 SE3       30.22S
OAKES            N/A     55  50  82 SE3       30.22S
RUGBY          FAIR      57  48  72 CALM      30.18F
STANLEY        FAIR      59  37  44 SW5       30.19S
TIOGA          FAIR      54  34  47 S6        30.21F
WATFORD CITY   FAIR      55  36  47 S5        30.16F HAZE
$$

CITY           SKY/WX    TMP DP  RH WIND       PRES   REMARKS
GRAND FORKS    CLEAR     59  50  72 SE5       30.18F
GRAND FORKS AF CLEAR     56  50  82 S6        30.19S
DEVILS LAKE    CLEAR     61  48  63 SW5       30.18R
FARGO          CLEAR     56  50  80 E7        30.21R
CANDO          FAIR      55  46  71 W7        30.19S
CAVALIER       FAIR      55  52  88 S3        30.17R
GRAFTON        FAIR      55  52  88 SE6       30.17S
GWINNER        CLEAR     57  48  72 CALM      30.23S
LANGDON        FAIR      54  45  71 CALM      30.18R
ROLLA          FAIR      50  46  87 SW6       30.20R
WALHALLA         N/A     57  55  94 CALM      30.16S
$$

CITY           SKY/WX    TMP DP  RH WIND       PRES   REMARKS
ABERDEEN       CLEAR     56  48  74 SE3       30.22F
MOBRIDGE       CLEAR     56  48  74 E5        30.20F
BUFFALO          N/A     64  37  36 E9        30.16F
RAPID CITY     CLEAR     61  41  47 SE7       30.25F
GLASGOW        CLEAR     67  39  35 E8        30.12F
SIDNEY         CLEAR     63  36  36 S3        30.18S
WOLF POINT     CLEAR     69  41  36 E3        30.13F
MILES CITY     CLEAR     71  38  29 E6        30.14F
BAKER          CLEAR     62  37  39 SE7       30.20F
$$

CITY           SKY/WX    TMP DP  RH WIND       PRES   REMARKS
BILLINGS       MOCLDY    72  43  35 E6        30.12F
GREAT FALLS    PTCLDY    70  48  45 E7        30.04F
REGINA         CLEAR     64  45  48 SW2       30.12F
ESTEVAN        CLEAR     61  43  51 S3        30.16F
$$



USA.gov is the U.S. government's official web portal to all federal, state and local government web resources and services.